Flag for France Weather past 2 weeks in Boulogne-Billancourt, France

Now
48 °F

Partly sunny.


Feels Like: 42 °F
Forecast: 40 / 57 °F
Wind: 18 mph from Northeast

Location: Paris-Orly

Current Time: Apr 27, 2015 at 11:26:11 AM

Latest Report: Apr 27, 2015 at 11:00 AM


Visibility: N/A

Pressure: 29.74 "Hg

Humidity: 76%

Dew point: 41 °F

Location of Boulogne-BillancourtLocation

Historic Weather in Boulogne-Billancourt — Graph

°F

Boulogne-Billancourt temperature yesterday

Maximum temperature yesterday: 61 °F (at 1:30 PM)
Minimum temperature yesterday: 50 °F (at 5:00 AM)
Average temperature yesterday: 55 °F

Past Weeks' High & Low Weather Summary

 TemperatureHumidityPressure
High81 °F (Apr 15, 6:00 PM)100% (Apr 12, 10:00 AM)30.51 "Hg (Apr 12, 10:00 AM)
Low41 °F (Apr 13, 6:30 AM)25% (Apr 20, 5:00 PM)29.62 "Hg (Apr 26, 6:30 PM)
Average58 °F61%30.09 "Hg
* Reported Apr 12 10:00 AM — Apr 27 10:00 AM, Boulogne-Billancourt, Weather by CustomWeather, © 2015

Note: Actual official high and low records may vary slightly from our data, if they occured in-between our weather recording intervals... More about our weather records

Advertising

Boulogne-Billancourt weather history for previous 24 hours

 ConditionsComfort  
Time TempWeatherWind HumidityBarometerVisibility
10:00 AM
Mon, Apr 27
48 °FMore clouds than sun.15 mph76%29.71 "HgN/A
9:30 AM48 °FMore clouds than sun.14 mph82%29.71 "HgN/A
9:00 AM48 °FMostly cloudy.17 mph82%29.68 "Hg5 mi
8:30 AM48 °FPartly sunny.15 mph87%29.68 "Hg5 mi
8:00 AM48 °FPartly sunny.13 mph94%29.68 "Hg4 mi
7:30 AM48 °FPassing clouds.17 mph94%29.68 "Hg4 mi
7:00 AM50 °FPassing clouds.12 mph88%29.65 "Hg4 mi
6:30 AM50 °FPassing clouds.13 mph88%29.65 "Hg5 mi
6:00 AM50 °FPassing clouds.15 mph94%29.65 "HgN/A
5:30 AM50 °FPassing clouds.13 mph94%29.65 "HgN/A
5:00 AM52 °FPassing clouds.13 mph88%29.65 "HgN/A
4:30 AM52 °FPartly cloudy.14 mph94%29.65 "HgN/A
4:00 AM54 °FPassing clouds.10 mph88%29.62 "HgN/A
3:30 AM54 °FPassing clouds.6 mph88%29.62 "HgN/A
3:00 AM54 °FPassing clouds.7 mph94%29.65 "HgN/A
2:30 AM54 °FPassing clouds.8 mph94%29.65 "HgN/A
2:00 AM54 °FPassing clouds.8 mph94%29.65 "HgN/A
1:30 AM54 °FPartly cloudy.7 mph94%29.65 "HgN/A
1:00 AM54 °FPassing clouds.7 mph94%29.65 "HgN/A
12:30 AM54 °FPassing clouds.7 mph94%29.65 "HgN/A
12:00 AM54 °FPartly cloudy.6 mph94%29.65 "HgN/A
11:30 PM
Sun, Apr 26
54 °FPassing clouds.6 mph94%29.65 "HgN/A
11:00 PM54 °FPassing clouds.7 mph94%29.65 "HgN/A
10:30 PM55 °FPartly cloudy.7 mph88%29.65 "HgN/A
10:00 PM55 °FPartly cloudy.8 mph88%29.65 "HgN/A
9:30 PM55 °FBroken clouds.7 mph88%29.65 "HgN/A
9:00 PM55 °FBroken clouds.9 mph88%29.65 "HgN/A
8:30 PM55 °FPartly sunny.7 mph94%29.65 "HgN/A
8:00 PM55 °FPartly sunny.8 mph94%29.62 "HgN/A
7:30 PM55 °FLight rain. Broken clouds.8 mph94%29.62 "HgN/A
7:00 PM55 °FLight rain. Partly sunny.9 mph94%29.62 "HgN/A
6:30 PM57 °FLight rain. Broken clouds.8 mph88%29.62 "HgN/A
6:00 PM57 °FLight rain. Broken clouds.9 mph88%29.65 "HgN/A
5:30 PM55 °FLight rain. Broken clouds.8 mph94%29.65 "HgN/A
5:00 PM55 °FLight rain. Partly sunny.7 mph94%29.65 "Hg5 mi
4:30 PM55 °FRain. Broken clouds.7 mph94%29.68 "Hg3 mi
4:00 PM57 °FLight rain. Broken clouds.7 mph88%29.68 "Hg3 mi
3:30 PM57 °FRain. Partly sunny.1 mph82%29.71 "Hg2 mi
3:05 PM59 °FRain. Partly sunny.6 mph88%29.71 "Hg2 mi
2:30 PM61 °FBroken clouds.5 mph72%29.68 "HgN/A
2:00 PM61 °FBroken clouds.5 mph72%29.71 "HgN/A
1:30 PM61 °FLight rain. Partly sunny.No wind72%29.71 "HgN/A
1:00 PM59 °FPartly sunny.2 mph82%29.71 "HgN/A
12:30 PM59 °FLight rain. Partly sunny.2 mph82%29.74 "HgN/A
12:00 PM59 °FLight rain. Partly sunny.3 mph77%29.74 "HgN/A
11:30 AM57 °FBroken clouds.2 mph82%29.74 "HgN/A
11:00 AM57 °FPartly sunny.2 mph82%29.74 "HgN/A
Weather by CustomWeather, © 2015

See weather overviewHow to use our weather pages